Chicago, IL - ORD

Touching down in the Windy City

The Chicago O'Hare International Airport is affectionately known as "O'Hare" and is in a constant battle with ATL - Atlanta Hartsfield-Jackson as the busiest airport in the United States. Boasting a very impressive list of over 225 destinations with it's 8 runways makes it extremely impressive to say the least. AAG operates over 45% of the total passenger share out of ORD.

ORD Based Pilots: 24   Miles to ORD: 262148
Flights from ORD: 395   Total Hours: 1482.5
Routes using ORD: 2075   From ORD: 776.08
Total Miles: 554367   Hours To ORD: 706.42
Miles from ORD: 292219   ORD Charts: Click Here
VATSIM METAR: KORD 272051Z 03010KT 10SM BKN022 OVC034 14/11 A2986 RMK AO2 SLP111 60000 T01440106 53013
 
         
View More: Click Here
   

 

Earn Your Wings

Interested in joining our ORD hub? Hover for more!

Your journey starts here. Your journey starts now. A whole new experience is at your fingertips.

Like what you see and ready to join the team?

A rewarding and memorable virtual airline experience awaits!